www.pogodaiklimat.ru
ПОГОДА в Ольштыне

Архив погоды в Ольштыне (Польша)

Время
(UTC), дата
16 21.05
17 21.05
18 21.05
19 21.05
20 21.05
21 21.05
22 21.05
23 21.05
00 22.05
01 22.05
02 22.05
03 22.05
04 22.05
05 22.05
06 22.05
07 22.05
08 22.05
09 22.05
10 22.05
11 22.05
12 22.05
13 22.05
14 22.05
15 22.05
16 22.05
17 22.05
18 22.05
19 22.05
20 22.05
21 22.05
22 22.05
23 22.05
00 23.05
01 23.05
02 23.05
03 23.05
04 23.05
05 23.05
06 23.05
07 23.05
08 23.05
09 23.05
10 23.05
11 23.05
12 23.05
13 23.05
14 23.05
15 23.05
16 23.05
17 23.05
18 23.05
19 23.05
20 23.05
21 23.05
22 23.05
23 23.05
00 24.05
01 24.05
02 24.05
03 24.05
04 24.05
05 24.05
06 24.05
07 24.05
08 24.05
09 24.05
10 24.05
11 24.05
12 24.05
13 24.05
14 24.05
15 24.05
16 24.05
17 24.05
18 24.05
19 24.05
20 24.05
21 24.05
22 24.05
23 24.05
00 25.05
01 25.05
02 25.05
03 25.05
04 25.05
05 25.05
06 25.05
07 25.05
08 25.05
09 25.05
10 25.05
11 25.05
12 25.05
13 25.05
14 25.05
15 25.05
16 25.05
17 25.05
18 25.05
19 25.05
20 25.05
21 25.05
22 25.05
23 25.05
00 26.05
01 26.05
02 26.05
03 26.05
04 26.05
05 26.05
06 26.05
07 26.05
08 26.05
09 26.05
10 26.05
11 26.05
12 26.05
13 26.05
14 26.05
15 26.05
16 26.05
17 26.05
18 26.05
19 26.05
20 26.05
21 26.05
22 26.05
23 26.05
00 27.05
01 27.05
02 27.05
03 27.05
04 27.05
05 27.05
06 27.05
07 27.05
08 27.05
09 27.05
10 27.05
11 27.05
12 27.05
13 27.05
14 27.05
15 27.05
16 27.05
17 27.05
18 27.05
19 27.05
20 27.05
21 27.05
22 27.05
23 27.05
00 28.05
01 28.05
02 28.05
03 28.05
04 28.05
05 28.05
06 28.05
07 28.05
08 28.05
09 28.05
10 28.05
11 28.05
12 28.05
13 28.05
14 28.05
15 28.05
16 28.05
Ветер
(напр.,м/с)
Видим. Явления Облачность Т
(С)
Тd
(С)
f
(%)
Тe
(С)
Тes
(С)
Комфортность P
(гПа)
Po
(гПа)
Тmin
(С)
Tmax
(С)
R
(мм)
R24
(мм)
S
(см)
СВ 5 45 км 5/3 1500 м
[Cb calv Ci sp]
+24.5 +11.1 43 +26 +27 жарко 1013.3 997.5
СВ 5 45 км 4/1 1500 м
[Cb cap Ci fib]
+24.1 +10.4 42 +25 +26 комфорт 1013.1 997.3
В 4 50 км 3/1 1500 м
[Cb calv Ci fib]
+22.7 +11.1 48 +25 +25 комфорт 1013.6 997.7 +17.8 +25.5
СВ 3 50 км н/о +21.0 +11.9 56 +24 +24 комфорт 1014.2 998.2
В 3 {8} 50 км н/о +19.6 +11.6 60 +21 +21 комфорт 1014.2 998.1
В 3 {8} 50 км н/о +18.5 +11.8 65 +19 +19 1014.4 998.3
В 2 50 км н/о +17.6 +12.1 70 +18 +18 1014.8 998.6
В 2 45 км н/о +16.5 +12.1 75 +17 +17 1014.7 998.5
В 2 {8} 50 км н/о +16.2 +12.2 77 +16 +16 1014.4 998.1
В 2 45 км н/о +14.9 +11.7 81 +15 +15 1014.1 997.8
СВ 2 26 км н/о +14.4 +12.1 86 +14 +14 1013.9 997.6
В 2 14 км н/о +13.9 +12.1 89 +13 +13 1014.0 997.6
В 3 14 км н/о +15.8 +13.3 85 +15 +15 1014.0 997.7
В 3 30 км н/о +17.4 +13.3 77 +17 +17 1013.9 997.7
В 3 35 км ясно +19.4 +13.6 69 +21 +26 комфорт 1013.8 997.7 +13.9 +22.7
В 4 35 км ясно +21.2 +13.1 60 +24 +29 комфорт 1013.4 997.4
В 5 40 км 3/1 1000 м
[Cu hum Ci fib]
+22.5 +12.4 53 +25 +30 комфорт 1013.0 997.1
В 3-9 {9} 30 км 3/3 1000 м
[Cu med, cong Ci fib]
+23.3 +11.7 48 +26 +34 жарко 1012.7 996.9
В 5 40 км 3/3 1000 м
[Cu med, cong Ci sp]
+24.1 +12.1 47 +26 +32 жарко 1012.3 996.5
В 5 {9} 45 км 3/3 1500 м
[Cu med, cong Ci sp]
+24.6 +11.9 45 +26 +32 жарко 1012.0 996.2
В 5 {10} 35 км 4/4 1500 м
[Cu med, cong Ci sp]
+25.4 +11.9 43 +27 +31 жарко 1011.5 995.8
В 5 {10} 45 км 4/4 1500 м
[Cu med, cong Ci sp]
+26.2 +11.9 41 +28 +31 жарко 1011.0 995.3
В 4-9 {9} 40 км 4/4 1500 м
[Cu med, cong]
+25.8 +11.5 41 +27 +31 жарко 1010.4 994.7
В 4 {10} 40 км 3/3 1500 м
[Cu med, cong]
+26.0 +12.1 42 +27 +30 жарко 1010.3 994.6
В 4 40 км 3/3 1500 м
[Cu med, cong]
+26.0 +12.8 44 +28 +29 жарко 1010.0 994.3
В 5-10 {10} 40 км 4/3 1500 м
[Cu med, cong Ci sp]
+25.2 +12.4 45 +27 +27 жарко 1010.0 994.3
В 4 {10} 40 км 3/1 1000 м
[Sc diur, vesp Ci sp]
+24.0 +10.3 42 +25 +25 комфорт 1010.6 994.8 +19.3 +26.6
В 3 50 км н/о +22.7 +10.5 46 +25 +25 комфорт 1011.3 995.4
В 3 45 км н/о +21.1 +10.0 49 +23 +23 комфорт 1011.5 995.6
В 3 50 км н/о +20.5 +9.4 49 +22 +22 комфорт 1011.7 995.7
В 3 50 км н/о +19.9 +9.7 52 +21 +21 комфорт 1011.8 995.8
В 3 50 км н/о +19.3 +10.0 55 +20 +20 1011.9 995.9
В 3 50 км н/о +18.9 +9.7 55 +20 +20 1012.2 996.1
В 2 50 км н/о +18.4 +9.7 57 +19 +19 1012.6 996.5
В 2 50 км н/о +17.4 +10.0 62 +18 +18 1013.0 996.8
В 2 50 км н/о +17.2 +10.6 65 +18 +18 1013.4 997.2
В 2 45 км н/о +17.3 +11.1 67 +18 +18 1013.9 997.7
В 2 35 км слаб. морось н/о +17.8 +11.4 66 +18 +18 1014.2 998.0
ЮВ 4 50 км в посл. час ливневой дождь 10/5 1000 м
[Sc Ac As]
+19.1 +11.9 63 +20 +21 1014.2 998.1 +17.0 +24.0 0.0 0.0
В 4-10 {10} 30 км слаб. ливневой дождь 10/10 1000 м
[Cb cap]
+17.3 +13.2 77 +17 +17 1014.2 998.0
В 4 {9} 35 км в посл. час ливневой дождь 10/4 1000 м
[Sc Ac As]
+17.9 +13.6 76 +18 +19 1014.7 998.5
В 4-9 {10} 30 км {ливн. дождь} 9/4 1000 м
[Sc Ac As]
+20.0 +13.5 66 +22 +24 комфорт 1014.5 998.5
В 3 30 км 10/6 1000 м
[Sc Ac As]
+20.0 +13.5 66 +22 +24 комфорт 1015.0 998.9
В 4 {9} 40 км 10/6 1000 м
[Sc Ac As]
+20.4 +12.9 62 +23 +24 комфорт 1015.3 999.3
В 3 {10} 35 км {ливн. дождь} 9/5 1000 м
[Sc Ac trans]
+21.1 +14.3 65 +24 +27 комфорт 1015.3 999.3 0.1
В 3 30 км 9/3 600 м
[Cb calv Ac trans Cs]
+23.6 +14.3 56 +26 +30 жарко 1014.9 999.0
ЮВ 2 40 км 9/6 600 м
[Cb calv Ac trans]
+23.1 +14.4 58 +27 +29 душно 1015.2 999.3
Ю 3 17 км слаб. ливневой дождь 10/10 1000 м
[Cb cap]
+18.9 +14.2 74 +20 +20 1016.1 1000.0
Ю 1 45 км в посл. час ливневой дождь 10/10 1000 м
[Sc]
+18.2 +15.3 83 +20 +20 1016.2 1000.0
В 1 45 км 10/10 1500 м
[Sc]
+18.6 +15.8 84 +21 +21 комфорт 1016.6 1000.4
В 1 30 км {ливн. дождь} 9/0
[Ac trans Cs]
+18.3 +15.9 86 +20 +20 1016.7 1000.5 +17.1 +24.0 0.5
ЮВ 1 25 км н/о +17.9 +16.1 89 +19 +19 1017.4 1001.2
штиль 0 9000 м н/о +16.4 +15.3 93 +16 +16 1017.9 1001.6
В 1 1400 м туман н/о +15.1 +14.6 97 +16 +16 1018.6 1002.2
СВ 1 7000 м в посл. час туман н/о +15.0 +14.7 98 +15 +15 1018.9 1002.5
СВ 1 300 м туман н/о +13.8 +13.5 98 +14 +14 1018.8 1002.3
СВ 1 4100 м в посл. час туман н/о +13.4 +13.1 98 +13 +13 1018.9 1002.4
СВ 2 4200 м дымка н/о +13.3 +13.1 99 +12 +12 1018.9 1002.4
В 1 3900 м дымка н/о +12.8 +12.3 97 +13 +13 1019.0 1002.5
штиль 0 5000 м дымка н/о +12.0 +11.4 96 +11 +11 1019.4 1002.8
В 2 9000 м дымка н/о +13.9 +13.9 100 +13 +13 1019.4 1002.9
В 2 30 км н/о +17.3 +13.2 77 +18 +18 1019.8 1003.5
ЮВ 2 35 км 6/1 600 м
[Sc Ac und Ci fib]
+19.2 +13.6 70 +21 +25 комфорт 1019.9 1003.7 +12.0 +19.2 0.5
В 2 35 км 6/0
[Ac trans Ci fib]
+20.1 +13.1 64 +23 +28 комфорт 1020.1 1004.0
СВ 1 35 км 5/0
[Ac trans Ci fib]
+21.9 +14.0 61 +25 +35 комфорт 1020.2 1004.2
В 3 30 км 5/0
[Ac trans Ci fib]
+23.6 +14.0 55 +26 +35 жарко 1020.2 1004.3
В 3 35 км 4/1 1000 м
[Cu hum Ac trans Ci fib]
+25.0 +13.9 50 +27 +37 жарко 1020.2 1004.3
В 4 30 км 4/1 1500 м
[Cu med, cong Ci fib]
+26.1 +13.9 47 +28 +37 жарко 1019.7 1003.9
ЮВ 4 30 км 4/3 2000 м
[Cu med, cong Ci fib]
+27.6 +10.3 34 +28 +35 жарко 1019.2 1003.5
В 3 40 км 6/5 2000 м
[Cb cap Ci fib]
+27.6 +10.3 34 +28 +33 жарко 1018.8 1003.1
Ю 3 {10} 35 км 6/6 2000 м
[Cb calv]
+27.6 +8.9 31 +28 +31 жарко 1018.8 1003.1
ЮВ 3 {10} 35 км 6/4 2000 м
[Cb calv Ac trans Ci fib]
+28.0 +8.3 29 +28 +30 жарко 1018.4 1002.7
ЮВ 2 {10} 40 км в посл. час ливневой дождь 6/6 1500 м
[Cb cap]
+25.2 +10.3 39 +26 +28 жарко 1018.7 1002.9
СВ 1 50 км 8/8 1500 м
[Cb calv]
+24.1 +13.3 51 +26 +27 жарко 1018.9 1003.0
С 3 {10} 45 км {ливн. дождь} 6/4 1500 м
[Cb calv Ac trans Ci fib]
+21.1 +16.3 74 +24 +25 комфорт 1019.1 1003.0 +19.2 +29.1 0.0
С 1 40 км н/о +19.9 +15.5 76 +23 +23 комфорт 1019.4 1003.3
В 1 {7} 45 км н/о +20.3 +14.4 69 +24 +24 комфорт 1019.7 1003.6
Ю 1 {7} 40 км н/о +18.9 +14.8 77 +21 +21 комфорт 1020.0 1003.8
В 2 50 км н/о +18.5 +13.1 71 +20 +20 1020.0 1003.8
В 3 45 км н/о +19.0 +10.5 58 +20 +20 1020.2 1004.0
В 2 {7} 50 км н/о +17.6 +10.9 65 +18 +18 1020.4 1004.1
ЮВ 3 50 км н/о +17.1 +10.7 66 +17 +17 1020.2 1003.9
В 2 50 км н/о +16.5 +10.3 67 +17 +17 1020.5 1004.2
ЮВ 2 50 км н/о +16.4 +10.0 66 +17 +17 1020.5 1004.2
В 2 45 км н/о +16.2 +11.1 72 +16 +16 1020.4 1004.0
ЮВ 3 40 км н/о +18.0 +11.3 65 +18 +18 1020.9 1004.6
ЮВ 3 35 км 4/0
[Ac trans Ci fib]
+19.8 +11.3 58 +22 +25 комфорт 1020.9 1004.7 +15.5 +21.1 0.0
В 3 35 км 4/0
[Ac trans Ci fib]
+21.2 +12.1 56 +23 +29 комфорт 1020.8 1004.7
В 4 35 км 8/0
[Ac trans Cs]
+21.2 +12.6 58 +23 +29 комфорт 1020.9 1004.8
В 2 35 км 9/0
[Ac trans Cs]
+22.2 +13.0 56 +25 +36 комфорт 1020.9 1004.9
В 3 35 км 9/0
[Cs]
+23.7 +12.0 48 +25 +36 комфорт 1020.7 1004.8
ЮВ 4 35 км 9/0
[Ac trans Cs]
+24.3 +11.6 45 +26 +34 жарко 1020.7 1004.8
В 2 35 км 9/1 1000 м
[Cu med, cong Ac trans Cs]
+24.4 +12.7 48 +26 +34 жарко 1020.5 1004.6
В 4 40 км 9/1 1000 м
[Cu med, cong Ac trans Cs]
+24.8 +13.0 48 +27 +31 жарко 1020.0 1004.1
В 4 35 км 9/3 1000 м
[Cu med, cong Ac trans Cs]
+25.9 +12.4 43 +27 +30 жарко 1019.4 1003.6
ЮВ 6-13 {13} 15 км гроза, ливневой дождь 9/9 1000 м
[Cb cap]
+21.7 +8.9 44 +23 +23 комфорт 1019.7 1003.7
ЮВ 3 {10} 50 км гроза без осадков {ливн. дождь} 9/9 1000 м
[Cb cap]
+19.6 +11.1 58 +21 +21 комфорт 1020.0 1003.8
В 2 50 км слаб. ливневой дождь 9/9 1000 м
[Cb cap]
+18.1 +12.5 70 +19 +19 1019.5 1003.3
В 3 {13} 50 км в посл. час ливневой дождь {гроза} 9/8 1000 м
[Cb cap Ac trans]
+17.9 +11.9 68 +18 +18 1019.6 1003.4 +17.8 +26.5 2
ЮВ 1 50 км н/о +18.0 +11.8 67 +19 +19 1019.9 1003.7
ЮВ 2 50 км н/о +18.3 +11.4 64 +19 +19 1020.7 1004.5
СВ 1 50 км н/о +17.1 +12.6 75 +18 +18 1020.9 1004.6
Ю 1 50 км н/о +16.9 +12.8 77 +18 +18 1021.2 1004.9
СВ 3 8000 м дождь н/о +15.7 +14.7 94 +15 +15 1022.0 1005.6
СВ 1 15 км слаб. дождь н/о +15.3 +14.8 97 +16 +16 1021.6 1005.2 3
В 3 16 км н/о +15.2 +14.7 97 +14 +14 1020.4 1004.0
В 3 28 км н/о +15.1 +14.6 97 +14 +14 1020.7 1004.3
В 2 30 км н/о +15.0 +14.0 94 +15 +15 1021.1 1004.7
В 1 23 км н/о +15.0 +14.2 95 +15 +15 1021.4 1005.0
В 2 21 км н/о +15.7 +14.9 95 +16 +16 1021.8 1005.4
ЮВ 3 30 км 4/0
[Ac trans Ci fib]
+17.4 +14.3 82 +17 +21 1022.0 1005.7 +14.9 +18.6 3 4.9
ЮВ 2 30 км 4/1 600 м
[Cu med, cong Ac trans Ci fib]
+19.2 +14.2 73 +21 +28 комфорт 1022.1 1005.9
В 3 35 км 4/1 600 м
[Cu med, cong Ac trans Ci sp]
+20.9 +14.8 68 +24 +32 комфорт 1021.9 1005.8
ЮВ 3 30 км 3/1 1000 м
[Cu med, cong Ci sp]
+22.4 +13.7 58 +26 +36 жарко 1021.8 1005.8
ЮВ 3 50 км 1/0
[Ci sp]
+24.1 +13.9 53 +26 +39 жарко 1021.6 1005.7
ЮВ 3 40 км 3/1 1000 м
[Cu med, cong Ci sp]
+25.0 +13.2 48 +27 +39 жарко 1021.6 1005.7
В 3 35 км 5/4 1500 м
[Cu med, cong Ci fib]
+25.6 +12.8 45 +27 +35 жарко 1021.5 1005.6
Ю 2 40 км гроза без осадков {ливн. дождь} 8/8 1500 м
[Cb cap]
+24.6 +12.5 47 +26 +29 жарко 1021.3 1005.4
В 2 30 км в посл. час гроза {ливн. дождь} 8/8 1000 м
[Cb cap]
+22.7 +13.2 55 +26 +28 жарко 1021.3 1005.3
В 1 35 км в посл. час ливневой дождь {гроза} 8/6 1000 м
[Cb cap Ci ing]
+23.2 +15.0 60 +27 +30 душно 1021.0 1005.0
СВ 2 50 км в посл. час гроза {ливн. дождь} 9/9 1000 м
[Cb cap]
+20.4 +13.4 64 +23 +24 комфорт 1021.6 1005.5
В 2 50 км в посл. час ливневой дождь 9/4 1000 м
[Cb cap Ac trans Cs]
+20.0 +16.0 78 +23 +24 комфорт 1021.5 1005.3
ЮВ 5-11 {11} 50 км {гроза, ливн. дождь} 9/5 1000 м
[Cb cap Cs]
+20.9 +13.3 62 +23 +24 комфорт 1022.1 1006.0 +17.4 +26.0 0.2
Ю 1 50 км н/о +20.3 +12.3 60 +23 +23 комфорт 1022.4 1006.2
СЗ 1 50 км н/о +18.7 +13.8 73 +21 +21 комфорт 1022.5 1006.3
СВ 1 45 км н/о +16.4 +13.7 84 +17 +17 1023.1 1006.7
В 2 30 км н/о +15.9 +14.6 92 +16 +16 1023.1 1006.7
Ю 1 30 км н/о +15.9 +14.6 92 +17 +17 1023.1 1006.7
В 1 40 км н/о +14.7 +13.2 91 +15 +15 1022.9 1006.4 0.1
В 2 50 км н/о +14.6 +11.7 83 +14 +14 1022.9 1006.4
ЮВ 1 40 км н/о +13.0 +11.2 89 +13 +13 1022.8 1006.2
В 1 30 км н/о +12.2 +11.1 93 +12 +12 1022.9 1006.3
В 1 40 км н/о +13.7 +11.9 89 +14 +14 1022.8 1006.3
В 1 35 км н/о +17.8 +9.4 58 +19 +19 1022.6 1006.3
В 1 30 км 1/0
[Ci fib]
+20.1 +9.9 52 +23 +29 комфорт 1022.5 1006.3 +11.9 +20.9 0.1 0.3
ЮВ 3 30 км 3/0
[Ac trans Ci fib]
+22.9 +7.8 38 +24 +30 комфорт 1022.1 1006.1
ЮВ 3 40 км 3/0
[Ac trans Ci fib]
+24.8 +6.0 30 +25 +33 комфорт 1021.8 1005.9
ЮВ 5 30 км 1/0
[Ci fib]
+25.8 +4.8 26 +25 +32 комфорт 1021.5 1005.7
Ю 4 {9} 35 км ясно +27.2 +4.3 23 +26 +37 жарко 1021.1 1005.3
ЮВ 3 {9} 35 км 1/1 2000 м
[Cu hum]
+27.6 +5.2 24 +27 +39 жарко 1020.8 1005.1
Ю 4 {9} 30 км 1/1 2000 м
[Cu hum]
+27.6 +4.0 22 +26 +35 жарко 1020.3 1004.6
Ю 4 {10} 40 км 3/1 2000 м
[Cu hum Ci fib]
+28.4 +4.0 21 +27 +34 жарко 1019.9 1004.2
Ю 4 35 км 3/1 2000 м
[Cu hum Ci fib]
+28.2 +2.4 19 +26 +32 жарко 1019.4 1003.7
ЮВ 4 {10} 30 км 1/0
[Ci fib]
+28.1 +3.0 20 +26 +31 жарко 1018.9 1003.2
Ю 4 50 км ясно +27.8 +1.3 18 +26 +28 жарко 1018.4 1002.7
Ю 3 40 км 1/0
[Ac trans]
+27.0 +2.8 21 +25 +27 комфорт 1018.2 1002.5
Ю 2 {10} 50 км 1/0
[Ac trans]
+25.5 +2.8 23 +24 +25 комфорт 1018.4 1002.6 +20.1 +28.5
штиль 0 30 км н/о +20.9 +6.0 38 +22 +22 комфорт 1018.9 1002.8
штиль 0 50 км н/о +18.0 +6.2 46 +18 +18 1019.2 1003.0
ЮВ 1 50 км н/о +16.5 +8.9 61 +17 +17 1019.3 1003.0
В 2 50 км н/о +16.3 +7.5 56 +16 +16 1019.2 1002.9
В 1 50 км н/о +14.5 +7.5 63 +15 +15 1019.3 1002.9
ЮВ 1 50 км н/о +13.6 +6.9 64 +14 +14 1019.5 1003.0
ЮВ 2 50 км н/о +14.2 +6.5 60 +14 +14 1019.2 1002.8
В 1 50 км н/о +13.3 +8.1 71 +14 +14 1018.8 1002.3
В 1 50 км н/о +12.5 +9.0 79 +13 +13 1018.8 1002.3
В 1 45 км н/о +14.0 +8.8 71 +14 +14 1018.7 1002.3
В 1 30 км н/о +17.9 +8.2 53 +19 +19 1018.6 1002.4
ЮВ 2 45 км 1/0
[Ci fib]
+20.3 +7.6 44 +22 +27 комфорт 1018.5 1002.4 +12.4 +25.5
ЮВ 3 40 км 3/0
[Ci fib]
+23.2 +8.1 38 +24 +31 комфорт 1018.1 1002.2
ЮВ 4 30 км 3/0
[Ci fib]
+25.3 +6.9 31 +25 +33 комфорт 1017.7 1001.9
ЮВ 4-9 {9} 40 км 4/0
[Ci fib]
+26.0 +5.0 26 +25 +34 комфорт 1017.6 1001.8
ЮВ 4 35 км 6/1 2000 м
[Cu hum Cs]
+27.0 +5.3 25 +26 +35 жарко 1017.0 1001.3
ЮВ 4-12 {12} 50 км 5/3 2000 м
[Cu med, cong Ci fib]
+27.7 +4.0 22 +26 +33 жарко 1016.4 1000.7
Ю 5 {12} 35 км 5/4 2000 м
[Cu med, cong Ci fib]
+27.7 +4.7 23 +26 +31 жарко 1015.9 1000.2
ЮВ 4 {9} 30 км 5/4 2000 м
[Cu med, cong Ci fib]
+28.9 +4.4 21 +27 +32 жарко 1015.1 999.5
Ю 4 {9} 50 км 4/3 2000 м
[Cu med, cong Ci fib]
+27.9 +2.9 20 +26 +31 жарко 1014.7 999.1
Ю 4 {9} 45 км 4/3 2000 м
[Cu med, cong Ci fib]
+28.2 +3.8 21 +27 +29 жарко 1014.4 998.8
Ю 4 45 км 5/4 2000 м
[Cu med, cong Ac trans Ci fib]
+27.9 +4.2 22 +26 +28 жарко 1014.2 998.6
Местоположение метеостанции Ольштын (Польша): широта 53.77 долгота 20.42 высота над уровнем моря 137 м.
В архиве по умолчанию представлена погода в Ольштыне за последнюю неделю. Архивные данные за месяц целиком и за предыдущие месяцы, начиная с января 2011 года, Вы можете получить, выбрав интересующий диапазон дат из раскрывающегося списка и нажав кнопку "Найти!".
*Определитесь, кто Вы:
Внимание! Время в таблицах - всемирное. Для получения местного времени необходимо прибавить поправку, которая равна 1 ч.
Некоторые строки с данными для отдельных станций могут быть выделены курсивом. Это означает, что фактические данные отсутствуют по различным причинам, а приведенные значения являются расчетными модельными данными для данного пункта наблюдений.
Смотрите также архив погоды в соседних городах и на ближайших метеорологических станциях:
Партнеры нашего сайта:      
Пояснения к столбцам:
  • Ветер - указаны скорость ветра в м/с - средняя за 10 мин, порывы в срок и между сроками (в фигурных скобках) и направление, откуда дует ветер: С - северный,
  • СВ - северо-восточный, В - восточный, ЮВ - юго-восточный, Ю - южный, ЮЗ - юго-западный, З - западный, СЗ - северо-западный.
  • Видимость - горизонтальная дальность видимости в метрах или километрах. При видимости от 1 до 10 км при отсутствии осадков обычно наблюдается дымка, при ухудшении видимости до 1 км и менее - туман. В сухую погоду видимость может ухудшаться дымом, пылью или мглою.
  • Явления - указаны атмосферные явления, наблюдавшиеся в срок или в последний час перед сроком; фигурными скобками обозначены явления, наблюдавшиеся между сроками (за 1-3 часа до срока); квадратными скобками обозначены град или гололедные отложения с указанием их диаметра в мм.
  • Облачность - указаны через наклонную черту общая и нижняя облачность в баллах и высота нижней границы облаков в метрах; квадратными скобками обозначены формы облаков: Ci - перистые, Cs - перисто-слоистые, Cc - перисто-кучевые, Ac - высококучевые, As - высокослоистые, Sc - слоисто-кучевые, Ns - слоисто-дождевые, Cu - кучевые, Cb - кучево-дождевые. Подробнее классификацию облаков см. в Атласе облаков (PDF).
  • T - Температура воздуха - температура, измеренная на высоте 2 м над землей.
  • Td - Температура точки росы - температура, при понижении до которой содержащийся в воздухе водяной пар достигнет насыщения.
  • f - Относительная влажность воздуха - влажноcть воздуха, измеренная на высоте 2 м над землей.
  • Te - Эффективная температура - температура, которую ощущает одетый по сезону человек в тени. Характеристика душности погоды. При расчете учитывается влияние влажности воздуха и скорости ветра на теплоощущения человека.
  • Tes - Эффективная температура на солнце - температура, которую ощущает человек, с поправкой на солнечный нагрев. Характеристика знойности погоды. Зависит от высоты солнца над горизонтом, облачности и скорости ветра. Ночью, в пасмурную погоду, а также при ветре 12 м/с и более поправка равна нулю.
  • P - Атмосферное давление - приведенное к уровню моря атмосферное давление.
  • Po - Атмосферное давление - измеренное на уровне метеостанции атмосферное давление.
  • Tmin - Минимальная температура - минимум температуры воздуха на высоте 2 м над землей.
  • Tmax - Максимальная температура - максимум температуры воздуха на высоте 2 м над землей.
  • R - Количество осадков - Количество выпавших осадков за период времени, мм. При наведении курсора мыши на число - период времени, за который выпало указанное количество осадков.
  • R24 - Количество осадков - Количество выпавших осадков за 24 часа, мм.
  • S - Снежный покров - Высота снежного покрова, см. При наведении курсора мыши на число - состояние снежного покрова и степень покрытия местности в баллах.